M\v Shaya — C6SL9 — position and weather

sailwx.info

Track history (hours):
 
Tides and Currents Weather Stations Pressure Air Temp Water Temp Dewpoint Dewpoint Depression Visibility Wind Speed Wind Dir Waves Ship Positions

M\v Shaya

Last reported at 2014-Jul-24 23:28 UTC. Time now 2014-Jul-25 11:23 UTC.
Position N 35°43' W 000°38'.

; draft 6.4 m.

Type: Cargo ship. MMSI: 311388000.

Date/timePositionNaut miles runAvg speedWind from/ knotsBaromVisibWave heightAir tempDewpointWater temp
2014-Jul-24 23:28N 35°43' W 000°38'0 0.0
2014-Jul-24 22:33N 35°43' W 000°38'1 1.1
2014-Jul-24 21:24N 35°44' W 000°38'4 4.3
2014-Jul-24 20:33N 35°47' W 000°37'16 7.8
2014-Jul-24 18:33N 36°02' W 000°30'1110.6
2014-Jul-24 17:32N 36°06' W 000°18'1312.8
2014-Jul-24 16:33N 36°12' W 000°03'2411.9
2014-Jul-24 14:33N 36°22' E 000°23'1412.2
2014-Jul-24 13:27N 36°27' E 000°39'2912.2
2014-Jul-24 11:05N 36°39' E 001°12'711.9
2014-Jul-24 10:32N 36°40' E 001°20'2511.7
2014-Jul-24 08:23N 36°49' E 001°49'2211.5
2014-Jul-24 06:29N 36°56' E 002°15'1112.0
2014-Jul-24 05:34N 37°00' E 002°28'1211.9
2014-Jul-24 04:34N 37°04' E 002°42'1211.7
2014-Jul-24 03:33N 37°08' E 002°56'1211.7
2014-Jul-24 02:33N 37°12' E 003°09'1312.7
2014-Jul-24 01:31N 37°17' E 003°25'1612.0
2014-Jul-24 00:10N 37°22' E 003°44'1312.0
2014-Jul-23 23:06N 37°27' E 003°59'812.4
2014-Jul-23 22:25N 37°29' E 004°09'1313.7
2014-Jul-23 21:29N 37°34' E 004°24'1312.2
2014-Jul-23 20:25N 37°37' E 004°40'1112.7
2014-Jul-23 19:33N 37°40' E 004°54'1312.5
2014-Jul-23 18:33N 37°45' E 005°09'1312.6
2014-Jul-23 17:33N 37°50' E 005°23'12911.7
2014-Jul-23 06:28N 38°34' E 007°58'1110.6
2014-Jul-23 05:27N 38°38' E 008°11'2110.6
2014-Jul-23 03:29N 38°44' E 008°36'1010.7
2014-Jul-23 02:33N 38°47' E 008°48'1110.8
2014-Jul-23 01:34N 38°51' E 009°01'1111.2
2014-Jul-23 00:33N 38°55' E 009°15'1111.2
2014-Jul-22 23:32N 38°59' E 009°29'23911.4
2014-Jul-22 02:32N 42°57' E 009°39'1110.8
2014-Jul-22 01:33N 43°08' E 009°39'1110.5
2014-Jul-22 00:33N 43°18' E 009°39'1111.0
2014-Jul-21 23:34N 43°29' E 009°42'1111.4
2014-Jul-21 22:34N 43°40' E 009°45'1111.5
2014-Jul-21 21:34N 43°51' E 009°50'1110.9
2014-Jul-21 20:33N 44°02' E 009°53'310.8
2014-Jul-21 20:18N 44°04' E 009°51'2 2.7
2014-Jul-21 19:31N 44°06' E 009°50'0 0.0
2014-Jul-21 18:28N 44°06' E 009°50'0 0.0
2014-Jul-21 17:31N 44°06' E 009°50'0 0.0
2014-Jul-21 16:31N 44°06' E 009°50'0 0.0
2014-Jul-21 15:31N 44°06' E 009°50'0 0.0
2014-Jul-21 14:31N 44°06' E 009°50'0 0.0
2014-Jul-21 13:31N 44°06' E 009°50'0 0.0
2014-Jul-21 12:31N 44°06' E 009°50'0 0.0
2014-Jul-21 11:31N 44°06' E 009°50'0 0.0
2014-Jul-21 10:28N 44°06' E 009°50'0 0.0
2014-Jul-21 09:31N 44°06' E 009°50'0 0.0
2014-Jul-21 08:28N 44°06' E 009°50'0 0.0
2014-Jul-21 07:31N 44°06' E 009°50'0 0.0
2014-Jul-21 06:31N 44°06' E 009°50'0 0.0
2014-Jul-21 05:31N 44°06' E 009°50'0 0.0
2014-Jul-21 04:31N 44°06' E 009°50'0 0.0
2014-Jul-21 03:31N 44°06' E 009°50'0 0.0
2014-Jul-21 02:31N 44°06' E 009°50'0 0.0
2014-Jul-21 01:31N 44°06' E 009°50'0 0.0
2014-Jul-21 00:28N 44°06' E 009°50'0 0.0
2014-Jul-20 23:31N 44°06' E 009°50'0 0.0
2014-Jul-20 22:31N 44°06' E 009°50'0 0.0
2014-Jul-20 21:31N 44°06' E 009°50'0 0.0
2014-Jul-20 20:31N 44°06' E 009°50'0 0.0
2014-Jul-20 19:31N 44°06' E 009°50'0 0.0
2014-Jul-20 18:31N 44°06' E 009°50'0 0.0
2014-Jul-20 17:31N 44°06' E 009°50'0 0.0
2014-Jul-20 16:28N 44°06' E 009°50'0 0.0
2014-Jul-20 15:31N 44°06' E 009°50'0 0.0
2014-Jul-20 14:28N 44°06' E 009°50'0 0.0
2014-Jul-20 13:28N 44°06' E 009°50'0 0.0
2014-Jul-20 12:31N 44°06' E 009°50'0 0.0
2014-Jul-20 11:28N 44°06' E 009°50'0 0.0
2014-Jul-20 10:31N 44°06' E 009°50'0 0.0
2014-Jul-20 09:28N 44°06' E 009°50'0 0.0
2014-Jul-20 08:28N 44°06' E 009°50'0 0.0
2014-Jul-20 07:31N 44°06' E 009°50'0 0.0
2014-Jul-20 06:28N 44°06' E 009°50'0 0.0
2014-Jul-20 05:31N 44°06' E 009°50'0 0.0
2014-Jul-20 04:31N 44°06' E 009°50'0 0.0
2014-Jul-20 03:31N 44°06' E 009°50'0 0.0
2014-Jul-20 02:31N 44°06' E 009°50'0 0.0
2014-Jul-20 01:31N 44°06' E 009°50'0 0.0
2014-Jul-20 00:31N 44°06' E 009°50'0 0.0
2014-Jul-19 23:31N 44°06' E 009°50'0 0.0
2014-Jul-19 22:31N 44°06' E 009°50'0 0.0
2014-Jul-19 21:31N 44°06' E 009°50'0 0.0
2014-Jul-19 20:31N 44°06' E 009°50'0 0.0
2014-Jul-19 19:28N 44°06' E 009°50'0 0.0
2014-Jul-19 18:31N 44°06' E 009°50'0 0.0
2014-Jul-19 17:31N 44°06' E 009°50'0 0.0
2014-Jul-19 16:31N 44°06' E 009°50'0 0.0
2014-Jul-19 15:31N 44°06' E 009°50'0 0.0
2014-Jul-19 14:31N 44°06' E 009°50'0 0.0
2014-Jul-19 13:31N 44°06' E 009°50'0 0.0
2014-Jul-19 12:31N 44°06' E 009°50'0 0.0
2014-Jul-19 11:31N 44°06' E 009°50'0 0.0
2014-Jul-19 10:31N 44°06' E 009°50'0 0.0
2014-Jul-19 09:31N 44°06' E 009°50'0 0.0
2014-Jul-19 08:31N 44°06' E 009°50'0 0.0
2014-Jul-19 07:31N 44°06' E 009°50'0 0.0
2014-Jul-19 06:31N 44°06' E 009°50'0 0.0
2014-Jul-19 05:31N 44°06' E 009°50'0 0.0
2014-Jul-19 04:31N 44°06' E 009°50'0 0.0
2014-Jul-19 03:31N 44°06' E 009°50'0 0.0
2014-Jul-19 02:31N 44°06' E 009°50'0 0.0
2014-Jul-19 01:31N 44°06' E 009°50'0 0.0
2014-Jul-19 00:31N 44°06' E 009°50'0 0.0
2014-Jul-18 23:31N 44°06' E 009°50'0 0.0
2014-Jul-18 22:31N 44°06' E 009°50'0 0.0
2014-Jul-18 21:31N 44°06' E 009°50'0 0.0
2014-Jul-18 20:31N 44°06' E 009°50'0 0.0
2014-Jul-18 19:31N 44°06' E 009°50'0 0.0
2014-Jul-18 18:31N 44°06' E 009°50'0 0.0
2014-Jul-18 17:31N 44°06' E 009°50'0 0.0
2014-Jul-18 16:31N 44°06' E 009°50'0 0.0
2014-Jul-18 15:31N 44°06' E 009°50'0 0.0
2014-Jul-18 14:31N 44°06' E 009°50'0 0.0
2014-Jul-18 13:31N 44°06' E 009°50'0 0.0
2014-Jul-18 12:31N 44°06' E 009°50'0 0.0
2014-Jul-18 11:31N 44°06' E 009°50'0 0.0
2014-Jul-18 10:31N 44°06' E 009°50'0 0.0
2014-Jul-18 09:31N 44°06' E 009°50'0 0.0
2014-Jul-18 08:28N 44°06' E 009°50'0 0.0
2014-Jul-18 07:31N 44°06' E 009°50'0 0.0
2014-Jul-18 06:31N 44°06' E 009°50'0 0.0
2014-Jul-18 05:31N 44°06' E 009°50'0 0.1
2014-Jul-18 04:33N 44°06' E 009°50'8 8.4
2014-Jul-18 03:33N 43°59' E 009°54'1110.6
2014-Jul-18 02:33N 43°50' E 009°45'1010.2
2014-Jul-18 01:33N 43°43' E 009°35'1010.0
2014-Jul-18 00:33N 43°36' E 009°25'10 9.7
2014-Jul-17 23:33N 43°29' E 009°17'1010.1
2014-Jul-17 22:33N 43°21' E 009°07'1010.3
2014-Jul-17 21:34N 43°14' E 008°57'1111.2
2014-Jul-17 20:33N 43°06' E 008°47'1111.1
2014-Jul-17 19:34N 42°58' E 008°36'1212.3
2014-Jul-17 18:34N 42°49' E 008°25'1212.2
2014-Jul-17 17:33N 42°40' E 008°13'1211.8
2014-Jul-17 16:33N 42°31' E 008°02'1111.4
2014-Jul-17 15:33N 42°23' E 007°52'1111.1
2014-Jul-17 14:33N 42°15' E 007°42'1111.1
2014-Jul-17 13:33N 42°07' E 007°31'1111.4
2014-Jul-17 12:33N 41°58' E 007°21'1212.1
2014-Jul-17 11:33N 41°50' E 007°09'1211.8
2014-Jul-17 10:33N 41°41' E 006°59'1211.9
2014-Jul-17 09:33N 41°32' E 006°48'8512.1
2014-Jul-17 02:29N 40°30' E 005°30'4811.8
2014-Jul-16 22:28N 39°56' E 004°48'1011.4
2014-Jul-16 21:33N 39°48' E 004°38'6011.9
2014-Jul-16 16:31N 39°07' E 003°42'1212.5
2014-Jul-16 15:33N 38°58' E 003°31'1212.4
2014-Jul-16 14:32N 38°50' E 003°19'1212.3
2014-Jul-16 13:33N 38°41' E 003°08'1212.1
2014-Jul-16 12:32N 38°33' E 002°56'1212.1
2014-Jul-16 11:34N 38°25' E 002°46'1212.1
2014-Jul-16 10:33N 38°16' E 002°34'1212.0
2014-Jul-16 09:33N 38°08' E 002°23'1211.8
2014-Jul-16 08:33N 38°00' E 002°12'1211.8
2014-Jul-16 07:33N 37°52' E 002°01'1211.9
2014-Jul-16 06:34N 37°44' E 001°51'1211.8
2014-Jul-16 05:33N 37°36' E 001°40'4811.4
2014-Jul-16 01:21N 37°03' E 000°56'911.4
2014-Jul-16 00:31N 36°56' E 000°47'1511.6
2014-Jul-15 23:13N 36°46' E 000°33'4711.8
2014-Jul-15 19:14N 36°14' W 000°09'  
Track history (hours):
 
Tides and Currents Weather Stations Pressure Air Temp Water Temp Dewpoint Dewpoint Depression Visibility Wind Speed Wind Dir Waves Ship Positions

M\v Shaya

Last reported at 2014-Jul-24 23:28 UTC. Time now 2014-Jul-25 11:23 UTC.
Position N 35°43' W 000°38'.

; draft 6.4 m.

Type: Cargo ship. MMSI: 311388000.

Date/timePositionNaut miles runAvg speedWind from/ knotsBaromVisibWave heightAir tempDewpointWater temp
2014-Jul-24 23:28N 35°43' W 000°38'0 0.0
2014-Jul-24 22:33N 35°43' W 000°38'1 1.1
2014-Jul-24 21:24N 35°44' W 000°38'4 4.3
2014-Jul-24 20:33N 35°47' W 000°37'16 7.8
2014-Jul-24 18:33N 36°02' W 000°30'1110.6
2014-Jul-24 17:32N 36°06' W 000°18'1312.8
2014-Jul-24 16:33N 36°12' W 000°03'2411.9
2014-Jul-24 14:33N 36°22' E 000°23'1412.2
2014-Jul-24 13:27N 36°27' E 000°39'2912.2
2014-Jul-24 11:05N 36°39' E 001°12'711.9
2014-Jul-24 10:32N 36°40' E 001°20'2511.7
2014-Jul-24 08:23N 36°49' E 001°49'2211.5
2014-Jul-24 06:29N 36°56' E 002°15'1112.0
2014-Jul-24 05:34N 37°00' E 002°28'1211.9
2014-Jul-24 04:34N 37°04' E 002°42'1211.7
2014-Jul-24 03:33N 37°08' E 002°56'1211.7
2014-Jul-24 02:33N 37°12' E 003°09'1312.7
2014-Jul-24 01:31N 37°17' E 003°25'1612.0
2014-Jul-24 00:10N 37°22' E 003°44'1312.0
2014-Jul-23 23:06N 37°27' E 003°59'812.4
2014-Jul-23 22:25N 37°29' E 004°09'1313.7
2014-Jul-23 21:29N 37°34' E 004°24'1312.2
2014-Jul-23 20:25N 37°37' E 004°40'1112.7
2014-Jul-23 19:33N 37°40' E 004°54'1312.5
2014-Jul-23 18:33N 37°45' E 005°09'1312.6
2014-Jul-23 17:33N 37°50' E 005°23'12911.7
2014-Jul-23 06:28N 38°34' E 007°58'1110.6
2014-Jul-23 05:27N 38°38' E 008°11'2110.6
2014-Jul-23 03:29N 38°44' E 008°36'1010.7
2014-Jul-23 02:33N 38°47' E 008°48'1110.8
2014-Jul-23 01:34N 38°51' E 009°01'1111.2
2014-Jul-23 00:33N 38°55' E 009°15'1111.2
2014-Jul-22 23:32N 38°59' E 009°29'23911.4
2014-Jul-22 02:32N 42°57' E 009°39'1110.8
2014-Jul-22 01:33N 43°08' E 009°39'1110.5
2014-Jul-22 00:33N 43°18' E 009°39'1111.0
2014-Jul-21 23:34N 43°29' E 009°42'1111.4
2014-Jul-21 22:34N 43°40' E 009°45'1111.5
2014-Jul-21 21:34N 43°51' E 009°50'1110.9
2014-Jul-21 20:33N 44°02' E 009°53'310.8
2014-Jul-21 20:18N 44°04' E 009°51'2 2.7
2014-Jul-21 19:31N 44°06' E 009°50'0 0.0
2014-Jul-21 18:28N 44°06' E 009°50'0 0.0
2014-Jul-21 17:31N 44°06' E 009°50'0 0.0
2014-Jul-21 16:31N 44°06' E 009°50'0 0.0
2014-Jul-21 15:31N 44°06' E 009°50'0 0.0
2014-Jul-21 14:31N 44°06' E 009°50'0 0.0
2014-Jul-21 13:31N 44°06' E 009°50'0 0.0
2014-Jul-21 12:31N 44°06' E 009°50'0 0.0
2014-Jul-21 11:31N 44°06' E 009°50'0 0.0
2014-Jul-21 10:28N 44°06' E 009°50'0 0.0
2014-Jul-21 09:31N 44°06' E 009°50'0 0.0
2014-Jul-21 08:28N 44°06' E 009°50'0 0.0
2014-Jul-21 07:31N 44°06' E 009°50'0 0.0
2014-Jul-21 06:31N 44°06' E 009°50'0 0.0
2014-Jul-21 05:31N 44°06' E 009°50'0 0.0
2014-Jul-21 04:31N 44°06' E 009°50'0 0.0
2014-Jul-21 03:31N 44°06' E 009°50'0 0.0
2014-Jul-21 02:31N 44°06' E 009°50'0 0.0
2014-Jul-21 01:31N 44°06' E 009°50'0 0.0
2014-Jul-21 00:28N 44°06' E 009°50'0 0.0
2014-Jul-20 23:31N 44°06' E 009°50'0 0.0
2014-Jul-20 22:31N 44°06' E 009°50'0 0.0
2014-Jul-20 21:31N 44°06' E 009°50'0 0.0
2014-Jul-20 20:31N 44°06' E 009°50'0 0.0
2014-Jul-20 19:31N 44°06' E 009°50'0 0.0
2014-Jul-20 18:31N 44°06' E 009°50'0 0.0
2014-Jul-20 17:31N 44°06' E 009°50'0 0.0
2014-Jul-20 16:28N 44°06' E 009°50'0 0.0
2014-Jul-20 15:31N 44°06' E 009°50'0 0.0
2014-Jul-20 14:28N 44°06' E 009°50'0 0.0
2014-Jul-20 13:28N 44°06' E 009°50'0 0.0
2014-Jul-20 12:31N 44°06' E 009°50'0 0.0
2014-Jul-20 11:28N 44°06' E 009°50'0 0.0
2014-Jul-20 10:31N 44°06' E 009°50'0 0.0
2014-Jul-20 09:28N 44°06' E 009°50'0 0.0
2014-Jul-20 08:28N 44°06' E 009°50'0 0.0
2014-Jul-20 07:31N 44°06' E 009°50'0 0.0
2014-Jul-20 06:28N 44°06' E 009°50'0 0.0
2014-Jul-20 05:31N 44°06' E 009°50'0 0.0
2014-Jul-20 04:31N 44°06' E 009°50'0 0.0
2014-Jul-20 03:31N 44°06' E 009°50'0 0.0
2014-Jul-20 02:31N 44°06' E 009°50'0 0.0
2014-Jul-20 01:31N 44°06' E 009°50'0 0.0
2014-Jul-20 00:31N 44°06' E 009°50'0 0.0
2014-Jul-19 23:31N 44°06' E 009°50'0 0.0
2014-Jul-19 22:31N 44°06' E 009°50'0 0.0
2014-Jul-19 21:31N 44°06' E 009°50'0 0.0
2014-Jul-19 20:31N 44°06' E 009°50'0 0.0
2014-Jul-19 19:28N 44°06' E 009°50'0 0.0
2014-Jul-19 18:31N 44°06' E 009°50'0 0.0
2014-Jul-19 17:31N 44°06' E 009°50'0 0.0
2014-Jul-19 16:31N 44°06' E 009°50'0 0.0
2014-Jul-19 15:31N 44°06' E 009°50'0 0.0
2014-Jul-19 14:31N 44°06' E 009°50'0 0.0
2014-Jul-19 13:31N 44°06' E 009°50'0 0.0
2014-Jul-19 12:31N 44°06' E 009°50'0 0.0
2014-Jul-19 11:31N 44°06' E 009°50'0 0.0
2014-Jul-19 10:31N 44°06' E 009°50'0 0.0
2014-Jul-19 09:31N 44°06' E 009°50'0 0.0
2014-Jul-19 08:31N 44°06' E 009°50'0 0.0
2014-Jul-19 07:31N 44°06' E 009°50'0 0.0
2014-Jul-19 06:31N 44°06' E 009°50'0 0.0
2014-Jul-19 05:31N 44°06' E 009°50'0 0.0
2014-Jul-19 04:31N 44°06' E 009°50'0 0.0
2014-Jul-19 03:31N 44°06' E 009°50'0 0.0
2014-Jul-19 02:31N 44°06' E 009°50'0 0.0
2014-Jul-19 01:31N 44°06' E 009°50'0 0.0
2014-Jul-19 00:31N 44°06' E 009°50'0 0.0
2014-Jul-18 23:31N 44°06' E 009°50'0 0.0
2014-Jul-18 22:31N 44°06' E 009°50'0 0.0
2014-Jul-18 21:31N 44°06' E 009°50'0 0.0
2014-Jul-18 20:31N 44°06' E 009°50'0 0.0
2014-Jul-18 19:31N 44°06' E 009°50'0 0.0
2014-Jul-18 18:31N 44°06' E 009°50'0 0.0
2014-Jul-18 17:31N 44°06' E 009°50'0 0.0
2014-Jul-18 16:31N 44°06' E 009°50'0 0.0
2014-Jul-18 15:31N 44°06' E 009°50'0 0.0
2014-Jul-18 14:31N 44°06' E 009°50'0 0.0
2014-Jul-18 13:31N 44°06' E 009°50'0 0.0
2014-Jul-18 12:31N 44°06' E 009°50'0 0.0
2014-Jul-18 11:31N 44°06' E 009°50'0 0.0
2014-Jul-18 10:31N 44°06' E 009°50'0 0.0
2014-Jul-18 09:31N 44°06' E 009°50'0 0.0
2014-Jul-18 08:28N 44°06' E 009°50'0 0.0
2014-Jul-18 07:31N 44°06' E 009°50'0 0.0
2014-Jul-18 06:31N 44°06' E 009°50'0 0.0
2014-Jul-18 05:31N 44°06' E 009°50'0 0.1
2014-Jul-18 04:33N 44°06' E 009°50'8 8.4
2014-Jul-18 03:33N 43°59' E 009°54'1110.6
2014-Jul-18 02:33N 43°50' E 009°45'1010.2
2014-Jul-18 01:33N 43°43' E 009°35'1010.0
2014-Jul-18 00:33N 43°36' E 009°25'10 9.7
2014-Jul-17 23:33N 43°29' E 009°17'1010.1
2014-Jul-17 22:33N 43°21' E 009°07'1010.3
2014-Jul-17 21:34N 43°14' E 008°57'1111.2
2014-Jul-17 20:33N 43°06' E 008°47'1111.1
2014-Jul-17 19:34N 42°58' E 008°36'1212.3
2014-Jul-17 18:34N 42°49' E 008°25'1212.2
2014-Jul-17 17:33N 42°40' E 008°13'1211.8
2014-Jul-17 16:33N 42°31' E 008°02'1111.4
2014-Jul-17 15:33N 42°23' E 007°52'1111.1
2014-Jul-17 14:33N 42°15' E 007°42'1111.1
2014-Jul-17 13:33N 42°07' E 007°31'1111.4
2014-Jul-17 12:33N 41°58' E 007°21'1212.1
2014-Jul-17 11:33N 41°50' E 007°09'1211.8
2014-Jul-17 10:33N 41°41' E 006°59'1211.9
2014-Jul-17 09:33N 41°32' E 006°48'8512.1
2014-Jul-17 02:29N 40°30' E 005°30'4811.8
2014-Jul-16 22:28N 39°56' E 004°48'1011.4
2014-Jul-16 21:33N 39°48' E 004°38'6011.9
2014-Jul-16 16:31N 39°07' E 003°42'1212.5
2014-Jul-16 15:33N 38°58' E 003°31'1212.4
2014-Jul-16 14:32N 38°50' E 003°19'1212.3
2014-Jul-16 13:33N 38°41' E 003°08'1212.1
2014-Jul-16 12:32N 38°33' E 002°56'1212.1
2014-Jul-16 11:34N 38°25' E 002°46'1212.1
2014-Jul-16 10:33N 38°16' E 002°34'1212.0
2014-Jul-16 09:33N 38°08' E 002°23'1211.8
2014-Jul-16 08:33N 38°00' E 002°12'1211.8
2014-Jul-16 07:33N 37°52' E 002°01'1211.9
2014-Jul-16 06:34N 37°44' E 001°51'1211.8
2014-Jul-16 05:33N 37°36' E 001°40'4811.4
2014-Jul-16 01:21N 37°03' E 000°56'911.4
2014-Jul-16 00:31N 36°56' E 000°47'1511.6
2014-Jul-15 23:13N 36°46' E 000°33'4711.8
2014-Jul-15 19:14N 36°14' W 000°09'  

Dump ship's entire track history